Weather Roundup
Issued by NWS Chicago, IL

Home | Current Version | Previous Version | Text Only | Print | Product List | Glossary On
Versions: 1 2 3 4 5 6 7 8 9 10 11 12 13 14 15 16 17 18 19 20 21 22 23 24 25 26 27 28 29 30 31 32 33 34 35 36 37 38 39 40 41 42 43 44 45 46 47 48 49 50
000
NZUS59 KLOT 251708
HRRLOT

CHICAGO AREA WEATHER ROUNDUP
NATIONAL WEATHER SERVICE CHICAGO/ROMEOVILLE IL
1200 PM CDT WED MAY 25 2016

NOTE: "FAIR" INDICATES FEW OR NO CLOUDS BELOW 12,000 FEET WITH NO
SIGNIFICANT WEATHER AND/OR OBSTRUCTIONS TO VISIBILITY.

* THESE STATIONS ARE NOT UNDER NWS QUALITY CONTROL. THEY ALSO MAY NOT
  REPORT WEATHER SUCH AS PRECIPITATION OR FOG.

ILZ005-006-012>014-019>023-251800-
NORTHEAST ILLINOIS

CITY           SKY/WX    TMP DP  RH WIND       PRES   REMARKS
OHARE          PTSUNNY   80  65  59 S10       29.99R HX  82
MIDWAY         PTSUNNY   82  61  48 SW10      29.99S HX  83
AURORA         MOSUNNY   83  65  54 SE9G17    29.98F HX  85
LANSING*       SUNNY     81  62  52 S8        30.00S HX  82
JOLIET*        MOSUNNY   81  66  59 SE6       29.99S HX  83
WAUKEGAN       CLOUDY    77  65  66 SE9       29.99R
DUPAGE AIRPORT CLOUDY    80  64  58 SE8       29.99S HX  82
WHEELING         N/A     80  65  59 MISG      30.00S HX  82
KANKAKEE*      SUNNY    N/A N/A N/A SW9       30.00F
MORRIS*        CLOUDY    83  61  47 S7        29.97S HX  83
LEWIS AIRPORT* MOSUNNY   80  59  48 S8        29.99F HX  81
$$

WIZ051-052-058>065-066-070>072-251800-
SOUTHEAST WISCONSIN

CITY           SKY/WX    TMP DP  RH WIND       PRES   REMARKS
MILWAUKEE      PTSUNNY   60  52  74 NE12      30.01F
KENOSHA*       PTSUNNY   76  63  64 E14       29.99R
RACINE*        CLOUDY    62  52  69 NE10      30.02S
BURLINGTON     MOSUNNY   82  62  50 S8        29.98S HX  82
WAUKESHA       SUNNY     72  61  68 E7        30.00F
WEST BEND      CLOUDY    68  57  68 E8        30.01S
$$

INZ001>003-010>013-019-020-251800-
NORTHWEST INDIANA

CITY           SKY/WX    TMP DP  RH WIND       PRES   REMARKS
GARY*          PTSUNNY   82  68  61 S8        30.01S HX  85
MICHIGAN CITY* NOT AVBL
RENSSELAER*    NOT AVBL
VALPARAISO     SUNNY     82  60  47 S14       30.02S HX  82
$$

LMZ740>746-251800-
SOUTHERN LAKE MICHIGAN

STATION/POSITION TIME  SKY/WX   TEMP WIND        PRES    VSBY
                                AIR  DIR/SP/G
                 (UTC)          (F)  (DEG/KT/KT) (MB)    (MI)
HARRISON CRIB    1600            74  150/ 11/ 12   N/A
BURNHAM HARBOR   1700            71  120/  5/  9   N/A
CALUMET HARBOR   1600            77  140/ 10/ 13 1015.0F
BURNS HARBOR     1600            79  180/  9/ 15 1016.3F
MICHIGAN CITY    1600            76  180/  8/ 11   N/A
$$

ABBREVIATIONS USED IN REMARKS
   TC - TEMPERATURE IN CELSIUS
  WCI - WIND CHILL INDEX
   HX - HEAT INDEX
  VSB - VISIBILITY
$$




USA.gov is the U.S. government's official web portal to all federal, state and local government web resources and services.